EZY61GM EGCC-LFMT

Flight info

Callsign EZY61GM
Flight time N/A
Altitude 35000
Route SANBA N859 HON UL612 VEULE/N0438F370 DCT DEKOD UN857 DISAK/N0425F330 DCT DIRMO DCT ETAMO DCT ADEKA DCT MOKDI DCT MEN
Aircraft A21N/M-SDE2E3FGHIJ1RWXY/LB1

Departure

Time 2026-05-07 09:26
Airport Manchester Airport (EGCC)

Arrival

Time N/A
Airport Montpellier-Méditerranée Airport (LFMT)
Time Latitude Longitude Altitude Speed Heading
2026-05-07 08:48 53.36949 -2.28699 261 ft 0 kts 135°
2026-05-07 09:12 53.36962 -2.28721 260 ft 4 kts 135°
2026-05-07 09:13 53.36976 -2.28742 260 ft 4 kts 168°
2026-05-07 09:13 53.36993 -2.28731 260 ft 2 kts 225°
2026-05-07 09:13 53.36979 -2.28754 260 ft 4 kts 225°
2026-05-07 09:13 53.36960 -2.28786 260 ft 3 kts 225°
2026-05-07 09:14 53.36957 -2.28791 260 ft 0 kts 225°
2026-05-07 09:16 53.36956 -2.28792 260 ft 1 kts 225°
2026-05-07 09:17 53.36942 -2.28814 260 ft 4 kts 225°
2026-05-07 09:17 53.36914 -2.28862 260 ft 7 kts 225°
2026-05-07 09:17 53.36870 -2.28936 260 ft 10 kts 225°
2026-05-07 09:17 53.36808 -2.29023 260 ft 13 kts 202°
2026-05-07 09:18 53.36745 -2.29036 260 ft 9 kts 151°
2026-05-07 09:18 53.36705 -2.28972 260 ft 8 kts 136°
2026-05-07 09:18 53.36656 -2.28902 260 ft 10 kts 157°
2026-05-07 09:18 53.36595 -2.28827 260 ft 12 kts 120°
2026-05-07 09:19 53.36546 -2.28701 260 ft 14 kts 135°
2026-05-07 09:19 53.36475 -2.28580 260 ft 15 kts 134°
2026-05-07 09:19 53.36410 -2.28450 260 ft 14 kts 109°
2026-05-07 09:19 53.36359 -2.28306 260 ft 15 kts 134°
2026-05-07 09:20 53.36280 -2.28174 260 ft 17 kts 135°
2026-05-07 09:20 53.36194 -2.28030 260 ft 18 kts 135°
2026-05-07 09:20 53.36094 -2.27893 260 ft 12 kts 142°
2026-05-07 09:20 53.36032 -2.27810 260 ft 12 kts 142°
2026-05-07 09:21 53.35953 -2.27732 260 ft 14 kts 167°
2026-05-07 09:21 53.35857 -2.27731 260 ft 9 kts 185°
2026-05-07 09:21 53.35801 -2.27709 257 ft 9 kts 140°
2026-05-07 09:21 53.35744 -2.27650 255 ft 10 kts 155°
2026-05-07 09:22 53.35676 -2.27595 252 ft 11 kts 149°
2026-05-07 09:22 53.35611 -2.27509 250 ft 13 kts 141°
2026-05-07 09:22 53.35537 -2.27412 252 ft 15 kts 141°
2026-05-07 09:22 53.35454 -2.27298 253 ft 16 kts 141°
2026-05-07 09:23 53.35367 -2.27197 251 ft 15 kts 165°
2026-05-07 09:23 53.35273 -2.27240 245 ft 15 kts 227°
2026-05-07 09:23 53.35206 -2.27380 243 ft 16 kts 231°
2026-05-07 09:23 53.35135 -2.27527 239 ft 16 kts 231°
2026-05-07 09:24 53.35070 -2.27659 238 ft 11 kts 230°
2026-05-07 09:24 53.35019 -2.27699 234 ft 8 kts 173°
2026-05-07 09:24 53.34965 -2.27686 231 ft 8 kts 171°
2026-05-07 09:24 53.34905 -2.27671 228 ft 9 kts 171°
2026-05-07 09:25 53.34839 -2.27680 229 ft 11 kts 215°
2026-05-07 09:25 53.34766 -2.27820 228 ft 32 kts 232°
2026-05-07 09:25 53.34477 -2.28416 230 ft 98 kts 231°
2026-05-07 09:25 53.33931 -2.29548 233 ft 149 kts 231°
2026-05-07 09:26 53.33243 -2.30995 544 ft 160 kts 231°
2026-05-07 09:26 53.32548 -2.32449 1116 ft 160 kts 228°
2026-05-07 09:26 53.31818 -2.33928 1638 ft 172 kts 231°
2026-05-07 09:26 53.31409 -2.35897 2164 ft 194 kts 266°
2026-05-07 09:27 53.31641 -2.38246 2792 ft 213 kts 279°
2026-05-07 09:27 53.31850 -2.40807 3215 ft 236 kts 259°
2026-05-07 09:27 53.29875 -2.45164 4687 ft 250 kts 204°
2026-05-07 09:28 53.28169 -2.45698 5572 ft 256 kts 177°
2026-05-07 09:28 53.26449 -2.44819 6448 ft 264 kts 155°
2026-05-07 09:28 53.24825 -2.43301 7284 ft 269 kts 153°
2026-05-07 09:28 53.23186 -2.41743 8163 ft 273 kts 153°
2026-05-07 09:29 53.21518 -2.40201 9092 ft 275 kts 154°
2026-05-07 09:29 53.19825 -2.38668 10026 ft 278 kts 154°
2026-05-07 09:29 53.18074 -2.37106 10568 ft 295 kts 154°
2026-05-07 09:29 53.16193 -2.35447 10979 ft 314 kts 154°
2026-05-07 09:30 53.14231 -2.33728 11677 ft 322 kts 154°
2026-05-07 09:30 53.12231 -2.31975 12462 ft 327 kts 155°